This is the latest recevied weather packets stored in our database for station/object KJ7HSW. If no packets are shown the sender has not sent any weather packets the latest 10 day(s).
| Time | Temp. | Humidity | Pressure | Rain* | Wind** | Luminosity | Snow |
|---|---|---|---|---|---|---|---|
| 1788579426 | 13.89° C | 87% | 1016.3 hPa | 0 mm | - | 0 W/m² | - |
| 1788579122 | 14.44° C | 86% | 1016.2 hPa | 0 mm | - | 0 W/m² | - |
| 1788578821 | 14.44° C | 86% | 1016.3 hPa | 0 mm | - | 0 W/m² | - |
| 1788578516 | 14.44° C | 86% | 1016.2 hPa | 0 mm | - | 0 W/m² | - |
| 1788578212 | 14.44° C | 85% | 1016.2 hPa | 0 mm | - | 0 W/m² | - |
| 1788577907 | 14.44° C | 86% | 1015.9 hPa | 0 mm | - | 0 W/m² | - |
| 1788577602 | 15° C | 85% | 1015.8 hPa | 0 mm | - | 0 W/m² | - |
| 1788577297 | 15° C | 84% | 1015.9 hPa | 0 mm | - | 0 W/m² | - |
| 1788576992 | 15° C | 84% | 1015.6 hPa | 0 mm | - | 1 W/m² | - |
| 1788576688 | 15° C | 83% | 1015.5 hPa | 0 mm | - | 1 W/m² | - |
| 1788576384 | 15.56° C | 83% | 1015.5 hPa | 0 mm | - | 2 W/m² | - |
| 1788576078 | 15.56° C | 81% | 1015.5 hPa | 0 mm | - | 4 W/m² | - |
| 1788575774 | 15.56° C | 81% | 1015.5 hPa | 0 mm | - | 6 W/m² | - |
| 1788575468 | 16.11° C | 81% | 1015.1 hPa | 0 mm | - | 8 W/m² | - |
| 1788575168 | 16.11° C | 80% | 1015.4 hPa | 0 mm | - | 11 W/m² | - |
| 1788574863 | 16.67° C | 79% | 1015.3 hPa | 0 mm | - | 14 W/m² | - |
| 1788574562 | 16.67° C | 79% | 1015.4 hPa | 0 mm | - | 16 W/m² | - |
| 1788574258 | 16.67° C | 78% | 1015.5 hPa | 0 mm | - | 18 W/m² | - |
| 1788573957 | 17.22° C | 78% | 1015.3 hPa | 0 mm | - | 20 W/m² | - |
| 1788573653 | 17.22° C | 74% | 1015.4 hPa | 0 mm | - | 22 W/m² | - |
| 1788573351 | 17.78° C | 73% | 1015.4 hPa | 0 mm | - | 24 W/m² | - |
| 1788573046 | 17.78° C | 73% | 1015.3 hPa | 0 mm | - | 31 W/m² | - |
| 1788572740 | 17.78° C | 71% | 1015.2 hPa | 0 mm | - | 41 W/m² | - |
| 1788572457 | 17.78° C | 69% | 1015.2 hPa | 0 mm | - | 46 W/m² | - |
| 1788572132 | 18.33° C | 69% | 1015 hPa | 0 mm | - | 48 W/m² | - |
* Rain latest hour (hover to see other rain measurements)
** Current wind speed in m/s (hover to see current wind gust speed)